• In Belarus
  • List of Countries
  • For 7 days
  • Water Temperature
  • Satellite Maps
  • Weather Map
  • Weather Widgets
  • user-avatar
    Login

    Hourly Weather Starosele

    Today, 19 February, Tuesday

    Time Temperature Precipitation Wind Pressure Humidity
    00:00 -6°C° 0 mm 1 mps 748 mmHg 90%
    01:00 -7°C° 0 mm 2 mps 748 mmHg 90%
    02:00 -7°C° 0 mm 1 mps 748 mmHg 91%
    03:00 -8°C° 0 mm 2 mps 747 mmHg 89%
    04:00 -8°C° 0 mm 2 mps 747 mmHg 87%
    05:00 -9°C° 0 mm 3 mps 746 mmHg 86%
    06:00 -9°C° 0 mm 3 mps 746 mmHg 84%
    07:00 -10°C° 0 mm 4 mps 746 mmHg 83%
    08:00 -9°C° 0 mm 4 mps 745 mmHg 81%
    09:00 -8°C° 0 mm 4 mps 745 mmHg 79%
    10:00 -7°C° 0 mm 5 mps 744 mmHg 76%
    11:00 -5°C° 0 mm 5 mps 744 mmHg 73%
    12:00 -4°C° 0 mm 5 mps 743 mmHg 74%
    13:00 -2°C° 0 mm 5 mps 743 mmHg 75%
    14:00 -2°C° 0 mm 5 mps 742 mmHg 75%
    15:00 -2°C° 0 mm 5 mps 742 mmHg 79%
    16:00 -4°C° 0 mm 5 mps 741 mmHg 82%
    17:00 -4°C° 0 mm 5 mps 740 mmHg 85%
    18:00 -4°C° 0 mm 5 mps 740 mmHg 86%
    19:00 -4°C° 0 mm 5 mps 739 mmHg 88%
    20:00 -4°C° 0 mm 5 mps 738 mmHg 89%
    21:00 -4°C° 0 mm 5 mps 738 mmHg 89%
    22:00 -2°C° 0 mm 5 mps 737 mmHg 89%
    23:00 -2°C° 0 mm 5 mps 736 mmHg 89%

    Tomorrow, 20 February, Wednesday

    Time Temperature Precipitation Wind Pressure Humidity
    00:00 -1°C° 0 mm 5 mps 736 mmHg 90%
    01:00 -1°C° 0 mm 5 mps 735 mmHg 91%
    02:00 -1°C° 0 mm 5 mps 735 mmHg 92%
    03:00 -1°C° 0.1 mm 5 mps 734 mmHg 92%
    04:00 -1°C° 0.1 mm 5 mps 734 mmHg 93%
    05:00 -1°C° 0.1 mm 5 mps 733 mmHg 93%
    06:00 -1°C° 0.1 mm 4 mps 733 mmHg 93%
    07:00 -1°C° 0.1 mm 4 mps 733 mmHg 93%
    08:00 -1°C° 0.1 mm 4 mps 733 mmHg 93%
    09:00 -1°C° 0 mm 4 mps 733 mmHg 93%
    10:00 0°C° 0 mm 4 mps 733 mmHg 93%
    11:00 0°C° 0 mm 5 mps 733 mmHg 93%
    12:00 0°C° 0.1 mm 5 mps 733 mmHg 93%
    13:00 0°C° 0.1 mm 5 mps 733 mmHg 93%
    14:00 0°C° 0.1 mm 5 mps 733 mmHg 92%
    15:00 0°C° 0.1 mm 5 mps 732 mmHg 92%
    16:00 0°C° 0.1 mm 5 mps 732 mmHg 92%
    17:00 0°C° 0.1 mm 5 mps 732 mmHg 91%
    18:00 0°C° 0.3 mm 5 mps 731 mmHg 90%
    19:00 0°C° 0.3 mm 5 mps 731 mmHg 90%
    20:00 0°C° 0.3 mm 5 mps 731 mmHg 89%
    21:00 -2°C° 0.2 mm 5 mps 731 mmHg 84%
    22:00 -4°C° 0.2 mm 5 mps 731 mmHg 78%
    23:00 -6°C° 0.2 mm 5 mps 731 mmHg 73%

    Day after tomorrow, 21 February, Thursday

    Time Temperature Precipitation Wind Pressure Humidity
    00:00 -6°C° 0 mm 5 mps 731 mmHg 76%
    01:00 -6°C° 0 mm 5 mps 732 mmHg 79%
    02:00 -6°C° 0 mm 5 mps 732 mmHg 82%
    03:00 -6°C° 0.1 mm 5 mps 732 mmHg 82%
    04:00 -6°C° 0.1 mm 6 mps 732 mmHg 82%
    05:00 -6°C° 0.1 mm 6 mps 732 mmHg 81%
    06:00 -6°C° 0.1 mm 6 mps 733 mmHg 80%
    07:00 -8°C° 0.1 mm 6 mps 733 mmHg 79%
    08:00 -8°C° 0.1 mm 6 mps 733 mmHg 78%
    09:00 -8°C° 0 mm 6 mps 734 mmHg 77%
    10:00 -6°C° 0 mm 6 mps 734 mmHg 76%
    11:00 -7°C° 0 mm 7 mps 734 mmHg 74%
    12:00 -7°C° 0 mm 7 mps 735 mmHg 74%
    13:00 -7°C° 0 mm 7 mps 735 mmHg 73%
    14:00 -7°C° 0 mm 7 mps 736 mmHg 72%
    15:00 -6°C° 0 mm 6 mps 737 mmHg 73%
    16:00 -8°C° 0 mm 6 mps 737 mmHg 74%
    17:00 -9°C° 0 mm 6 mps 738 mmHg 75%
    18:00 -9°C° 0 mm 6 mps 739 mmHg 75%
    19:00 -10°C° 0 mm 6 mps 740 mmHg 75%
    20:00 -11°C° 0 mm 5 mps 741 mmHg 75%
    21:00 -11°C° 0 mm 6 mps 741 mmHg 74%
    22:00 -12°C° 0 mm 6 mps 742 mmHg 73%
    23:00 -14°C° 0 mm 6 mps 742 mmHg 73%

    22 February, Friday

    Time Temperature Precipitation Wind Pressure Humidity
    00:00 -13°C° 0 mm 5 mps 743 mmHg 73%
    01:00 -14°C° 0 mm 5 mps 743 mmHg 74%
    02:00 -14°C° 0 mm 5 mps 744 mmHg 74%
    03:00 -14°C° 0 mm 5 mps 745 mmHg 74%
    04:00 -14°C° 0 mm 5 mps 745 mmHg 74%
    05:00 -14°C° 0 mm 5 mps 746 mmHg 75%
    06:00 -14°C° 0 mm 5 mps 746 mmHg 73%
    07:00 -14°C° 0 mm 5 mps 747 mmHg 71%
    08:00 -15°C° 0 mm 6 mps 747 mmHg 69%
    09:00 -14°C° 0 mm 6 mps 748 mmHg 67%
    10:00 -14°C° 0 mm 6 mps 748 mmHg 64%
    11:00 -13°C° 0 mm 7 mps 748 mmHg 61%
    12:00 -12°C° 0 mm 7 mps 748 mmHg 61%
    13:00 -12°C° 0 mm 7 mps 748 mmHg 60%
    14:00 -12°C° 0 mm 7 mps 748 mmHg 60%
    15:00 -12°C° 0 mm 7 mps 748 mmHg 63%
    16:00 -11°C° 0 mm 6 mps 749 mmHg 66%
    17:00 -12°C° 0 mm 6 mps 749 mmHg 69%
    18:00 -12°C° 0 mm 6 mps 749 mmHg 69%
    19:00 -14°C° 0 mm 6 mps 750 mmHg 69%
    20:00 -14°C° 0 mm 6 mps 750 mmHg 70%
    21:00 -14°C° 0 mm 5 mps 750 mmHg 72%
    22:00 -14°C° 0 mm 5 mps 751 mmHg 73%
    23:00 -14°C° 0 mm 5 mps 751 mmHg 75%

    23 February, Saturday

    Time Temperature Precipitation Wind Pressure Humidity
    00:00 -14°C° 0 mm 5 mps 752 mmHg 76%
    01:00 -14°C° 0 mm 5 mps 752 mmHg 77%
    02:00 -14°C° 0 mm 5 mps 752 mmHg 78%
    03:00 -15°C° 0 mm 5 mps 752 mmHg 79%
    04:00 -15°C° 0 mm 5 mps 752 mmHg 80%
    05:00 -15°C° 0 mm 4 mps 753 mmHg 81%
    06:00 -15°C° 0 mm 4 mps 753 mmHg 81%
    07:00 -16°C° 0 mm 4 mps 753 mmHg 82%
    08:00 -16°C° 0 mm 4 mps 753 mmHg 83%
    09:00 -15°C° 0 mm 4 mps 754 mmHg 80%
    10:00 -14°C° 0 mm 4 mps 754 mmHg 77%
    11:00 -12°C° 0 mm 4 mps 754 mmHg 75%
    12:00 -12°C° 0 mm 4 mps 754 mmHg 72%
    13:00 -11°C° 0 mm 4 mps 754 mmHg 69%
    14:00 -9°C° 0 mm 3 mps 754 mmHg 67%
    15:00 -10°C° 0 mm 3 mps 754 mmHg 70%
    16:00 -10°C° 0 mm 3 mps 754 mmHg 73%
    17:00 -10°C° 0 mm 2 mps 754 mmHg 76%
    18:00 -10°C° 0 mm 2 mps 755 mmHg 77%
    19:00 -10°C° 0 mm 2 mps 755 mmHg 79%
    20:00 -12°C° 0 mm 2 mps 755 mmHg 80%
    21:00 -12°C° 0 mm 2 mps 755 mmHg 81%
    22:00 -12°C° 0 mm 2 mps 756 mmHg 81%
    23:00 -12°C° 0 mm 2 mps 756 mmHg 82%

    24 February, Sunday

    Time Temperature Precipitation Wind Pressure Humidity
    00:00 -12°C° 0 mm 2 mps 756 mmHg 83%
    01:00 -12°C° 0 mm 2 mps 756 mmHg 84%
    02:00 -12°C° 0 mm 2 mps 756 mmHg 85%
    03:00 -11°C° 0 mm 1 mps 756 mmHg 85%
    04:00 -11°C° 0 mm 1 mps 756 mmHg 85%
    05:00 -11°C° 0 mm 1 mps 756 mmHg 86%
    06:00 -11°C° 0 mm 1 mps 757 mmHg 84%
    07:00 -10°C° 0 mm 1 mps 757 mmHg 83%
    08:00 -10°C° 0 mm 1 mps 757 mmHg 82%
    09:00 -9°C° 0 mm 1 mps 757 mmHg 75%
    10:00 -7°C° 0 mm 1 mps 757 mmHg 69%
    11:00 -6°C° 0 mm 1 mps 757 mmHg 63%
    12:00 -4°C° 0 mm 1 mps 757 mmHg 64%
    13:00 -3°C° 0 mm 1 mps 757 mmHg 64%
    14:00 -2°C° 0 mm 1 mps 756 mmHg 65%
    15:00 -3°C° 0 mm 1 mps 756 mmHg 71%
    16:00 -4°C° 0 mm 1 mps 756 mmHg 77%
    17:00 -4°C° 0 mm 1 mps 756 mmHg 84%
    18:00 -6°C° 0 mm 1 mps 756 mmHg 87%
    19:00 -6°C° 0 mm 1 mps 756 mmHg 90%
    20:00 -6°C° 0 mm 1 mps 756 mmHg 92%
    21:00 -7°C° 0 mm 2 mps 755 mmHg 93%
    22:00 -7°C° 0 mm 2 mps 755 mmHg 94%
    23:00 -7°C° 0 mm 2 mps 755 mmHg 95%
    Show more